Retour au catalogue

COSMOS 1675

ActifMilitaireHEO
NORAD 15952·PAYLOAD·🇷🇺 Russia

Lancé Aug 12, 1985 depuis Plesetsk Cosmodrome

Loading…

Prochains Passages (prochaines 24 heures)

TLE

FraisSource: Space-Track

Époque: Sep 14, 2026, 06:24 UTC

1 15952U 85071A   26257.26669666 -.00000069  00000-0  00000-0 0  9998
2 15952  65.7716  14.6651 6278281 266.3632  25.0113  3.14133247392498

Suivez COSMOS 1675 en temps réel avec AllMySat

Download on the App Store